This is the latest recevied weather packets stored in our database for station/object WI0K. If no packets are shown the sender has not sent any weather packets the latest 10 day(s).
| Time | Temp. | Humidity | Pressure | Rain* | Wind** | Luminosity | Snow |
|---|---|---|---|---|---|---|---|
| 1777559864 | 4.44° C | 76% | 1021.2 hPa | 0 mm | - | 181 W/m² | - |
| 1777559564 | 4.44° C | 76% | 1021.4 hPa | 0 mm | - | 148 W/m² | - |
| 1777559263 | 3.89° C | 78% | 833.9 hPa | 0 mm | - | 155 W/m² | - |
| 1777558962 | 3.89° C | 75% | 833.8 hPa | 0 mm | - | 146 W/m² | - |
| 1777558662 | 3.89° C | 75% | 1021.2 hPa | 0 mm | - | 149 W/m² | - |
| 1777558361 | 3.89° C | 75% | 833.8 hPa | 0 mm | - | 149 W/m² | - |
| 1777558060 | 3.89° C | 73% | 1021.1 hPa | 0 mm | - | 128 W/m² | - |
| 1777557760 | 4.44° C | 72% | 1021 hPa | 0 mm | - | 119 W/m² | - |
| 1777557459 | 4.44° C | 72% | 1021 hPa | 0 mm | - | 114 W/m² | - |
| 1777557158 | 4.44° C | 74% | 833.6 hPa | 0 mm | - | 101 W/m² | - |
| 1777556858 | 4.44° C | 74% | 833.7 hPa | 0 mm | - | 72 W/m² | - |
| 1777556557 | 4.44° C | 72% | 833.7 hPa | 0 mm | - | 49 W/m² | - |
| 1777556257 | 4.44° C | 74% | 1021 hPa | 0 mm | - | 61 W/m² | - |
| 1777555956 | 4.44° C | 72% | 833.6 hPa | 0 mm | - | 89 W/m² | - |
| 1777555656 | 4.44° C | 70% | 833.6 hPa | 0 mm | - | 95 W/m² | - |
| 1777555355 | 4.44° C | 71% | 833.6 hPa | 0 mm | - | 76 W/m² | - |
| 1777555054 | 4.44° C | 70% | 833.5 hPa | 0 mm | - | 56 W/m² | - |
| 1777554753 | 5° C | 69% | 1020.8 hPa | 0 mm | - | 52 W/m² | - |
| 1777554453 | 5° C | 74% | 833.4 hPa | 0 mm | - | 60 W/m² | - |
| 1777554152 | 4.44° C | 71% | 833.4 hPa | 0 mm | - | 69 W/m² | - |
| 1777553851 | 4.44° C | 70% | 833.3 hPa | 0 mm | - | 53 W/m² | - |
| 1777553551 | 4.44° C | 69% | 833.3 hPa | 0 mm | - | 41 W/m² | - |
| 1777553250 | 4.44° C | 68% | 833.3 hPa | 0 mm | - | 33 W/m² | - |
| 1777552949 | 4.44° C | 70% | 833.2 hPa | 0 mm | - | 27 W/m² | - |
| 1777552649 | 4.44° C | 73% | 833.2 hPa | 0 mm | - | 25 W/m² | - |
* Rain latest hour (hover to see other rain measurements)
** Current wind speed in m/s (hover to see current wind gust speed)